This demonstration page uses our WeatherBlox Daily Observations layout. Learn more.

41.55636, -103.73856

Hourly Observations for October 20, 2019

Temp ( °F °C ) Dew Point ( °F °C ) Humidity (%) Winds ( mph kmh ) Pressure ( in mb ) Visibility ( mi km ) Precip ( " mm )
12:58 am 00:58 Mostly Cloudy 55 12.7 18 -7.9 23 23 S 5 7 29.71 1006 10 16.0934 0 0
1:58 am 01:58 Mostly Cloudy 55 13 20 -6.6 25 25 WNW 6 9 29.69 1006 10 16.0934 0 0
2:58 am 02:58 Mostly Cloudy 55 12.9 21 -6.1 26 26 SW 9 15 29.65 1004 10 16.0934 0 0
3:58 am 03:58 Mostly Cloudy 53 11.5 20 -6.4 28 28 ESE 12 19 29.61 1003 10 16.0934 0 0
4:58 am 04:58 Mostly Cloudy 50 10.2 20 -6.6 30 30 ESE 17 28 29.57 1001 10 16.0934 0 0
5:58 am 05:58 Cloudy 48 8.8 20 -6.6 33 33 NE 5 7 29.53 1000 10 16.0934 0 0
7:58 am 07:58 Mostly Cloudy 44 6.7 21 -6.3 39 39 NW 7 11 29.49 999 10 16.0934 0 0
8:58 am 08:58 Mostly Cloudy 45 7.3 29 -1.5 54 54 WNW 23 37 29.51 999 10 16.0934 0 0
9:58 am 09:58 Mostly Cloudy 42 5.5 27 -2.6 56 56 WNW 21 33 29.53 1000 10 16.0934 0 0
10:58 am 10:58 Mostly Cloudy 43 5.9 20 -6.9 40 40 WNW 22 35 29.54 1000 10 16.0934 0 0
11:58 am 11:58 Mostly Cloudy 41 5 18 -7.9 39 39 W 17 28 29.56 1001 10 16.0934 0 0
12:58 pm 12:58 Mostly Cloudy 38 3.1 17 -8.1 44 44 NW 9 15 29.58 1002 10 16.0934 0 0
1:58 pm 13:58 Mostly Cloudy 40 4.6 17 -8.3 39 39 W 22 35 29.57 1001 10 16.0934 0 0
2:58 pm 14:58 Sunny 40 4.4 18 -7.9 41 41 W 23 37 29.59 1002 10 16.0934 0 0
3:58 pm 15:58 Partly Cloudy 45 7.1 19 -7.4 35 35 WNW 36 57 29.56 1001 10 16.0934 0 0
4:58 pm 16:58 Mostly Cloudy 45 7.1 21 -6.1 39 39 WNW 32 52 29.54 1000 10 16.0934 0 0
5:58 pm 17:58 Mostly Cloudy 44 6.8 24 -4.6 44 44 WNW 44 70 29.53 1000 10 16.0934 0 0
6:58 pm 18:58 Mostly Cloudy 42 5.5 29 -1.6 61 61 WNW 33 54 29.55 1001 10 16.0934 0 0
7:58 pm 19:58 Mostly Cloudy with Drizzle 38 3.3 34 1.1 86 86 NW 31 50 29.58 1002 10 16.0934 0 0
8:58 pm 20:58 Mostly Cloudy 39 3.9 32 0 76 76 NW 38 61 29.6 1002 10 16.0934 0 0
9:58 pm 21:58 Windy with Snow Showers Likely 33 0.8 33 0.4 97 97 WNW 28 44 29.67 1005 3 4.82802 0 0
10:58 pm 22:58 Cloudy with Light Rain/Snow 34 1.2 33 0.8 97 97 NW 35 56 29.7 1006 2.75 4.425685 0.03 0.762
11:58 pm 23:58 Cloudy with Light Rain 35 1.8 34 1.1 95 95 NW 40 65 29.74 1007 8 12.87472 0.02 0.508

Powered by AerisWeather